This is the latest recevied weather packets stored in our database for station/object N1YZ. If no packets are shown the sender has not sent any weather packets the latest 10 day(s).
| Time | Temp. | Humidity | Pressure | Rain* | Wind** | Luminosity | Snow |
|---|---|---|---|---|---|---|---|
| 1778021400 | 23.89° C | 62% | 1032 hPa | 0 mm | - | 33 W/m² | - |
| 1778021097 | 23.89° C | 61% | 1031.9 hPa | 0 mm | - | 33 W/m² | - |
| 1778020794 | 23.33° C | 62% | 1031.8 hPa | 0 mm | - | 39 W/m² | - |
| 1778020491 | 23.33° C | 62% | 1032 hPa | 0 mm | - | 38 W/m² | - |
| 1778020187 | 23.33° C | 62% | 1031.8 hPa | 0 mm | - | 29 W/m² | - |
| 1778019884 | 23.33° C | 62% | 1031.7 hPa | 0 mm | - | 39 W/m² | - |
| 1778019579 | 23.89° C | 63% | 1031.7 hPa | 0 mm | - | 41 W/m² | - |
| 1778019277 | 23.89° C | 64% | 1031.8 hPa | 0 mm | - | 64 W/m² | - |
| 1778018974 | 23.89° C | 63% | 1031.7 hPa | 0 mm | - | 85 W/m² | - |
| 1778018670 | 23.33° C | 63% | 1031.3 hPa | 0 mm | - | 92 W/m² | - |
| 1778018368 | 23.33° C | 62% | 1031.7 hPa | 0 mm | - | 68 W/m² | - |
| 1778018066 | 23.33° C | 64% | 1031.8 hPa | 0 mm | - | 53 W/m² | - |
| 1778017764 | 23.89° C | 65% | 1031.8 hPa | 0 mm | - | 54 W/m² | - |
| 1778017461 | 23.89° C | 63% | 1031.9 hPa | 0 mm | - | 76 W/m² | - |
| 1778017158 | 23.89° C | 61% | 1031.8 hPa | 0 mm | - | 109 W/m² | - |
| 1778016856 | 23.89° C | 61% | 1031.9 hPa | 0 mm | - | 95 W/m² | - |
| 1778016552 | 23.89° C | 66% | 1031.9 hPa | 0 mm | - | 117 W/m² | - |
| 1778016249 | 23.89° C | 64% | 1032 hPa | 0 mm | - | 101 W/m² | - |
| 1778015945 | 23.89° C | 64% | 1031.7 hPa | 0 mm | - | 122 W/m² | - |
| 1778015644 | 24.44° C | 62% | 1031.7 hPa | 0 mm | - | 149 W/m² | - |
| 1778015339 | 24.44° C | 61% | 1031.8 hPa | 0 mm | - | 169 W/m² | - |
| 1778015036 | 24.44° C | 60% | 1031.8 hPa | 0 mm | - | 147 W/m² | - |
| 1778014733 | 23.89° C | 66% | 1031.7 hPa | 0 mm | - | 167 W/m² | - |
| 1778014432 | 23.89° C | 64% | 1031.6 hPa | 0 mm | - | 146 W/m² | - |
| 1778014128 | 24.44° C | 61% | 1031.9 hPa | 0 mm | - | 98 W/m² | - |
* Rain latest hour (hover to see other rain measurements)
** Current wind speed in m/s (hover to see current wind gust speed)